Location: Coopersdale
(40.3556°N, 78.9372°W)
Time: 07:12:21
(UTC+00:00)

Tiros 1 despin weight - Pass Details

Date: 27 June 2021
Orbit: 593 x 642 km, 48.2° (Epoch: 04 August)

Event Time Altitude Azimuth Distance (km) Brightness Sun altitude
Exits shadow 09:00:24 - 260° (W) 2,206 ? -8.1°
Reaches altitude 10° 09:01:07 10° 262° (W) 1,938 ? -8.0°
Maximum altitude 09:05:25 49° 338° (NNW) 768 ? -7.4°
Drops below altitude 10° 09:09:43 10° 54° (NE) 1,926 ? -6.8°
Sets 09:12:04 0° 60° (ENE) 2,827 ? -6.4°
